Weather History for Fayetteville, AR

Change the Weather History Date:

Saturday, November 24, 2012

  Actual Average Record
Temperature  
Mean Temperature 36 °F 44 °F  
Max Temperature 54 °F 55 °F 76 °F (1965)
Min Temperature 19 °F 33 °F 9 °F (1950)
Degree Days  
Heating Degree Days 28 21  
Month to date heating degree days 393  
Since 1 July heating degree days 693  
Moisture  
Dew Point 18 °F    
Average Humidity 55    
Maximum Humidity 92    
Minimum Humidity 22    
Precipitation  
Precipitation 0.00 in 0.14 in 2.62 in (1996)
Month to date precipitation 3.42  
Year to date precipitation 44.46  
Sea Level Pressure  
Sea Level Pressure 30.27 in    
Wind  
Wind Speed 1 mph (SSW)    
Max Wind Speed 9 mph    
Max Gust Speed -    
Visibility 10 miles    
Events      
T = Trace of Precipitation, MM = Missing Value Source: NWS Daily Summary

Daily Weather History Graph

Daily Weather History Graph

Search for Another Location

Airport:

Trip Planner

Search our weather history database for the weather conditions in past years. The results will help you decide how hot, cold, wet, or windy it might be!

Date:

Astronomy

Nov. 24, 2012 Rise Set
Actual Time 7:02 AM CST 5:04 PM CST
Civil Twilight 6:34 AM CST 5:32 PM CST
Nautical Twilight 6:03 AM CST 6:03 PM CST
Astronomical Twilight 5:32 AM CST 6:34 PM CST
Moon 2:44 PM CST (11/24) 3:25 AM CST (11/24)
Length of Visible Light 10h 57m
Length of Day
10h 01m
Waxing Gibbous, 87% of the Moon is Illuminated
Nov 24
Waxing Gibbous
Nov 28
Full
Dec 6
Last Quarter
Dec 13
New
Dec 19
First Quarter

Hourly Weather History & Observations

Time (CST) Temp. Windchill Dew Point Humidity Pressure Visibility Wind Dir Wind Speed Gust Speed Precip Events Conditions
12:53 AM 24.1 °F - 19.9 °F 84% 30.44 in 10.0 mi Calm Calm - N/A   Clear
1:53 AM 23.0 °F - 19.9 °F 88% 30.43 in 10.0 mi Calm Calm - N/A   Clear
2:53 AM 21.0 °F - 18.0 °F 88% 30.42 in 10.0 mi Calm Calm - N/A   Clear
3:53 AM 21.9 °F - 19.0 °F 89% 30.42 in 10.0 mi Calm Calm - N/A   Clear
4:53 AM 19.9 °F - 18.0 °F 92% 30.42 in 10.0 mi Calm Calm - N/A   Clear
5:53 AM 21.0 °F - 18.0 °F 88% 30.41 in 10.0 mi Calm Calm - N/A   Clear
6:53 AM 19.9 °F - 18.0 °F 92% 30.41 in 10.0 mi Calm Calm - N/A   Clear
7:53 AM 21.9 °F - 19.9 °F 92% 30.40 in 10.0 mi Calm Calm - N/A   Clear
8:53 AM 28.0 °F - 21.9 °F 78% 30.39 in 10.0 mi Calm Calm - N/A   Clear
9:53 AM 37.9 °F - 17.1 °F 43% 30.38 in 10.0 mi Calm Calm - N/A   Clear
10:53 AM 42.1 °F - 10.0 °F 27% 30.37 in 10.0 mi Calm Calm - N/A   Clear
11:53 AM 45.0 °F - 12.0 °F 26% 30.32 in 10.0 mi Calm Calm - N/A   Clear
12:53 PM 50.0 °F - 15.1 °F 25% 30.26 in 10.0 mi South 3.5 mph - N/A   Clear
1:53 PM 53.1 °F - 15.1 °F 22% 30.22 in 10.0 mi Calm Calm - N/A   Clear
2:53 PM 54.0 °F - 16.0 °F 22% 30.19 in 10.0 mi SSW 6.9 mph - N/A   Clear
3:53 PM 52.0 °F - 18.0 °F 26% 30.17 in 10.0 mi South 8.1 mph - N/A   Clear
4:53 PM 48.0 °F - 19.0 °F 32% 30.16 in 10.0 mi South 6.9 mph - N/A   Clear
5:53 PM 42.1 °F 38.4 °F 19.0 °F 40% 30.15 in 10.0 mi South 5.8 mph - N/A   Clear
6:53 PM 41.0 °F - 19.0 °F 41% 30.12 in 10.0 mi Calm Calm - N/A   Clear
7:53 PM 41.0 °F - 19.0 °F 41% 30.12 in 10.0 mi Calm Calm - N/A   Clear
8:53 PM 39.9 °F - 19.0 °F 43% 30.11 in 10.0 mi Calm Calm - N/A   Clear
9:53 PM 41.0 °F 35.2 °F 21.0 °F 45% 30.09 in 10.0 mi South 9.2 mph - N/A   Clear
10:53 PM 41.0 °F 36.4 °F 21.0 °F 45% 30.07 in 10.0 mi SW 6.9 mph - N/A   Clear
11:53 PM 41.0 °F 35.8 °F 21.9 °F 47% 30.07 in 10.0 mi SSW 8.1 mph - N/A   Clear